[[{"header":{"parameterUnit":"m.s-1","parameterCategory":2,"la1":30.2991,"la2":30.254,"lo1":-89.0895,"lo2":-89.0444,"dy":0.0017,"dx":0.0017,"nx":28,"ny":28,"refTime":"2025-04-29T21:00:00:Z","depth":"0","parameterNumber":2,"parameterNumberName":"U-component_of_CURRENTS"},"data":[0,0,0,0,0,0,0,0,0,0,0,0,0,0,0,0,0,0,0,0,0,0,0,0,0,0,0,0,0,0,0,0,0,0,0,0,0,0,0,0,0,0,0,0,0,0,0,0,0,0,0,0,0,0,0,0,0,0,0.2837,0.2837,0,0.2884,0.2885,0.2885,0.2876,0.2876,0.2875,0.2875,0.2874,0.2875,0.2875,0,0,0,0,0,0,0,0,0,0,0,0,0,0.274,0.2741,0.2837,0.2838,0.2838,0.2884,0.2885,0.2885,0.2876,0.2876,0.2875,0.2874,0.2874,0.2875,0.2875,0,0,0,0,0,0,0,0,0,0,0,0,0,0.2781,0.2742,0.2836,0.2842,0.2843,0.2884,0.2885,0.2885,0.2876,0.2876,0.2875,0.2874,0.2874,0.2874,0.2875,0.2896,0,0,0.2878,0.2878,0,0,0,0,0,0,0,0,0.2779,0.2784,0.284,0.2842,0.2843,0.2876,0.285,0.2888,0.2877,0.286,0.2875,0.2874,0.2873,0.2874,0.2881,0.2896,0.2896,0.2878,0.2878,0.2878,0.2879,0,0,0,0,0,0,0,0.2776,0.2782,0.2852,0.2841,0.2843,0.2843,0.2847,0.2857,0.2867,0.2862,0.2862,0.2873,0.2873,0.288,0.2881,0.2896,0.2878,0.2878,0.2879,0.2879,0.2953,0.2954,0,0,0,0,0,0,0.2778,0.278,0.2851,0.2854,0.2812,0.2845,0.285,0.2864,0.2868,0.287,0.2873,0.2872,0.2879,0.288,0.2881,0.2928,0.2878,0.2879,0.288,0.2951,0.2953,0.2955,0,0,0,0,0,0,0.2775,0.2784,0.2849,0.282,0.2829,0.2848,0.2863,0.2865,0.2876,0.2878,0.2878,0.2883,0.2879,0.2879,0.2901,0.2927,0.2879,0.288,0.295,0.2952,0.2954,0.3009,0,0,0,0,0,0,0.2772,0.2783,0.2793,0.282,0.2831,0.2884,0.2865,0.2867,0.2886,0.2884,0.2887,0.2885,0.2878,0.29,0.2902,0.2927,0.2881,0.2948,0.2951,0.2953,0.3006,0.3013,0.302,0,0,0,0,0,0.2769,0.2791,0.2794,0.2802,0.2845,0.2885,0.2891,0.2899,0.2887,0.2902,0.2903,0.2886,0.2919,0.2902,0.2904,0.293,0.2946,0.295,0.2953,0.3002,0.3012,0.302,0,0,0,0,0,0,0.2752,0.2793,0.2796,0.2828,0.2859,0.2885,0.2903,0.2905,0.2919,0.2915,0.2905,0.2905,0.2935,0.2927,0.2909,0.2961,0.293,0.2934,0.2967,0.2976,0.2983,0.2978,0.2881,0,0,0,0,0,0.2756,0.2783,0.2818,0.2845,0.2862,0.2882,0.2899,0.2907,0.2924,0.2928,0.2929,0.2934,0.2952,0.2958,0.297,0.2997,0.3008,0.3016,0.3023,0.3029,0.3028,0.3076,0.3087,0.2966,0.2966,0.2966,0,0,0.2756,0.2783,0.2798,0.2844,0.2866,0.2897,0.289,0.2924,0.2945,0.2927,0.2952,0.296,0.2966,0.2999,0.3011,0.2994,0.3074,0.3034,0.3039,0.3034,0.3081,0.3093,0.3103,0.2968,0.2968,0.2967,0,0,0.2773,0.2798,0.2824,0.2853,0.2896,0.2914,0.2926,0.2957,0.2968,0.2999,0.2993,0.3018,0.3036,0.305,0.3058,0.3112,0.3111,0.3118,0.3148,0.3195,0.3206,0.3215,0.326,0.3273,0.3119,0.3119,0.3119,0,0.2769,0.2804,0.2838,0.2871,0.2893,0.2922,0.2949,0.2975,0.3007,0.3023,0.3012,0.3061,0.3062,0.3109,0.3126,0.3128,0.3154,0.3114,0.3205,0.3214,0.3222,0.3266,0.328,0.3122,0.3122,0.3122,0.3121,0,0.2804,0.283,0.2852,0.2899,0.2931,0.2962,0.3003,0.3034,0.3047,0.3069,0.3117,0.3129,0.3156,0.3167,0.316,0.3225,0.3225,0.321,0.3182,0.3238,0.3281,0.3294,0.3127,0.3126,0.3125,0.3124,0,0,0.2791,0.286,0.2862,0.2878,0.2944,0.2967,0.3023,0.3074,0.3106,0.3142,0.3184,0.3219,0.3228,0.3237,0.3243,0.3279,0.3364,0.327,0.3272,0.3313,0.3478,0.3492,0.3506,0.3369,0.3371,0.3373,0.349,0,0.2799,0.2842,0.2885,0.2923,0.2944,0.2997,0.3042,0.3096,0.3141,0.3195,0.323,0.3272,0.3256,0.3275,0.3314,0.3355,0.3397,0.3333,0.3419,0.3421,0.3425,0.3522,0.3447,0.3547,0.3503,0.3505,0.3506,0,0.2807,0.2834,0.2863,0.2919,0.2935,0.2967,0.3039,0.3089,0.3184,0.3223,0.3284,0.3317,0.3389,0.3359,0.3464,0.3428,0.3456,0.348,0.3485,0.3483,0.3459,0.3481,0.3571,0.3508,0.3526,0.3524,0.3523,0,0.275,0.2814,0.2826,0.2846,0.2922,0.2947,0.2995,0.3088,0.3138,0.3247,0.3302,0.3384,0.344,0.3491,0.3556,0.3517,0.3674,0.3624,0.3662,0.3663,0.3608,0.36,0.364,0.3693,0.3692,0.3692,0.3692,0,0.2724,0.2731,0.2796,0.2799,0.2829,0.2902,0.2952,0.3024,0.3134,0.3209,0.3306,0.3393,0.3477,0.3577,0.3603,0.3699,0.3719,0.3693,0.3705,0.3627,0.3621,0.3566,0.3519,0.3696,0.3696,0.3695,0.3694,0,0.2644,0.2687,0.2704,0.2773,0.2796,0.2814,0.2916,0.2961,0.3085,0.3195,0.3237,0.3421,0.3571,0.3656,0.3769,0.3772,0.376,0.3862,0.3771,0.377,0.3716,0.3674,0.3571,0.3451,0.3918,0.392,0.3921,0,0.2599,0.2601,0.2661,0.2673,0.2699,0.2746,0.2783,0.2911,0.2981,0.3215,0.3272,0.347,0.3603,0.3805,0.3871,0.3955,0.3813,0.3909,0.381,0.3734,0.3696,0.3512,0.3403,0.3764,0.3764,0.3764,0.3764,0,0.2522,0.2546,0.2564,0.2597,0.2625,0.2656,0.2735,0.2783,0.2959,0.3074,0.3261,0.3393,0.365,0.3753,0.3904,0.3932,0.3744,0.3905,0.3848,0.361,0.3389,0.3272,0.3666,0.3761,0.3761,0.3762,0.3762,0.3762,0.2468,0.247,0.2511,0.2533,0.2551,0.2574,0.2581,0.2687,0.2791,0.2964,0.3162,0.3332,0.3604,0.3828,0.3833,0.3841,0.3738,0.3751,0.3721,0.3551,0.3386,0.3784,0.3876,0.3877,0.3877,0.3878,0.3879,0,0.244,0.2456,0.2457,0.2478,0.2455,0.2498,0.2553,0.2557,0.2638,0.284,0.2988,0.3281,0.3466,0.3643,0.3795,0.3688,0.3467,0.3592,0.3313,0.322,0.3625,0.3572,0.3574,0.3574,0.3574,0.3574,0.3574,0.3574,0.2436,0.2438,0.2439,0.2393,0.2387,0.2336,0.2343,0.2365,0.2472,0.2628,0.279,0.2984,0.34,0.3719,0.3716,0.3599,0.3271,0.3161,0.3081,0.3401,0.3411,0.3421,0.3361,0.3319,0.3319,0.2546,0.2541,0.2537]},{"header":{"parameterUnit":"m.s-1","parameterCategory":2,"la1":30.2991,"la2":30.254,"lo1":-89.0895,"lo2":-89.0444,"dy":0.0017,"dx":0.0017,"nx":28,"ny":28,"refTime":"2025-04-29T21:00:00:Z","depth":"0","parameterNumber":3,"parameterNumberName":"V-component_of_CURRENTS"},"data":[0,0,0,0,0,0,0,0,0,0,0,0,0,0,0,0,0,0,0,0,0,0,0,0,0,0,0,0,0,0,0,0,0,0,0,0,0,0,0,0,0,0,0,0,0,0,0,0,0,0,0,0,0,0,0,0,0,0,0.0093,0.0092,0,0.0003,0.0002,0.0001,-0.0061,-0.0061,-0.0062,-0.0062,-0.0188,-0.0191,-0.0194,0,0,0,0,0,0,0,0,0,0,0,0,0,0.015,0.0149,0.0093,0.0092,0.0091,0.0004,0.0002,0.0001,-0.0061,-0.0061,-0.0062,-0.0062,-0.0187,-0.0191,-0.0195,0,0,0,0,0,0,0,0,0,0,0,0,0,0.0098,0.0149,0.0093,0.0051,0.0046,0.0004,0.0002,0.0,-0.0061,-0.0061,-0.0062,-0.0062,-0.0186,-0.0191,-0.0195,-0.0213,0,0,-0.0209,-0.0211,0,0,0,0,0,0,0,0,0.0101,0.0096,0.0058,0.0053,0.0048,-0.0017,-0.0024,-0.0072,-0.0061,-0.0022,-0.0062,-0.0063,-0.0133,-0.0142,-0.0159,-0.0219,-0.0225,-0.021,-0.0212,-0.0214,-0.0216,0,0,0,0,0,0,0,0.0105,0.0099,0.0056,0.0057,0.0051,0.0016,0.0008,-0.0034,-0.0075,-0.0025,-0.003,-0.0037,-0.0136,-0.0155,-0.0163,-0.0227,-0.0209,-0.0214,-0.0216,-0.0218,-0.0313,-0.0312,0,0,0,0,0,0,0.0122,0.0103,0.0059,0.0053,0.0076,0.0015,0.0007,0.0003,-0.0074,-0.0086,-0.0036,-0.004,-0.0147,-0.0157,-0.0168,-0.0185,-0.0214,-0.0219,-0.0221,-0.0313,-0.0313,-0.0312,0,0,0,0,0,0,0.0124,0.012,0.0062,0.0077,0.0067,0.0016,0.0012,0.0002,-0.0016,-0.0082,-0.0095,-0.0043,-0.0148,-0.0161,-0.0199,-0.0191,-0.0221,-0.0225,-0.0313,-0.0313,-0.0312,-0.0226,0,0,0,0,0,0,0.0126,0.0121,0.0125,0.0078,0.0067,0.0047,0.0012,0.0001,-0.0019,-0.0024,-0.0092,-0.0105,-0.0149,-0.0192,-0.0204,-0.0198,-0.0228,-0.0313,-0.0313,-0.0313,-0.0229,-0.0223,-0.0218,0,0,0,0,0,0.0129,0.0142,0.0126,0.0121,0.0075,0.0048,0.0039,-0.0001,-0.0018,-0.002,-0.0067,-0.0102,-0.0198,-0.0195,-0.0209,-0.0205,-0.0314,-0.0313,-0.0313,-0.0232,-0.0224,-0.0218,0,0,0,0,0,0,0.0169,0.0135,0.0117,0.012,0.009,0.0038,0.0035,0.0006,-0.0032,-0.0036,-0.01,-0.0116,-0.0147,-0.0187,-0.0183,-0.0231,-0.0261,-0.0263,-0.0195,-0.0189,-0.0183,-0.0159,-0.0232,0,0,0,0,0,0.0181,0.0182,0.0141,0.0143,0.0133,0.0085,0.007,0.0043,0.0003,-0.0015,-0.0063,-0.0113,-0.0156,-0.0179,-0.0224,-0.0249,-0.0285,-0.0255,-0.0249,-0.0244,-0.0235,-0.0283,-0.028,-0.0311,-0.0311,-0.0311,0,0,0.0197,0.0179,0.0179,0.0152,0.0126,0.0121,0.0075,0.006,0.0053,-0.0022,-0.0043,-0.0094,-0.0158,-0.0187,-0.0204,-0.0219,-0.0253,-0.0243,-0.0238,-0.0232,-0.0282,-0.0279,-0.0277,-0.031,-0.031,-0.031,0,0,0.0236,0.0216,0.0231,0.0212,0.0183,0.0153,0.0154,0.0107,0.0085,0.0057,0.0002,-0.004,-0.0105,-0.0148,-0.0178,-0.0166,-0.022,-0.0183,-0.0134,-0.018,-0.0178,-0.0177,-0.0208,-0.021,-0.0179,-0.0179,-0.0179,0,0.0257,0.0268,0.0231,0.0239,0.0232,0.0174,0.0189,0.0157,0.0103,0.0091,0.0064,-0.0029,-0.0085,-0.0121,-0.012,-0.0152,-0.0183,-0.0153,-0.0171,-0.0171,-0.0171,-0.0204,-0.0207,-0.0174,-0.0175,-0.0175,-0.0176,0,0.0304,0.031,0.0319,0.0311,0.0298,0.0301,0.0257,0.024,0.0206,0.0171,0.0129,0.0051,-0.0001,-0.003,-0.0074,-0.01,-0.0123,-0.0157,-0.0184,-0.0162,-0.0199,-0.0204,-0.0168,-0.017,-0.0171,-0.0172,0,0,0.0357,0.0354,0.0357,0.037,0.0339,0.0338,0.0329,0.0307,0.0311,0.0244,0.0241,0.0152,0.0108,0.0071,0.0006,-0.004,-0.007,-0.0091,-0.0096,-0.0112,-0.0162,-0.0166,-0.0172,-0.0108,-0.0108,-0.0109,-0.0184,0,0.0405,0.0444,0.0424,0.0459,0.0477,0.0431,0.0432,0.0403,0.0366,0.0346,0.0259,0.0227,0.0147,0.0126,0.0066,-0.0032,-0.0081,-0.0046,-0.019,-0.0194,-0.0192,-0.0177,-0.0158,-0.0223,-0.0189,-0.019,-0.0191,0,0.0457,0.0478,0.0522,0.0543,0.0548,0.0554,0.0554,0.0548,0.0498,0.0469,0.0414,0.0349,0.0273,0.0202,0.0048,0.0074,-0.0033,-0.0117,-0.0123,-0.0159,-0.0207,-0.0244,-0.0234,-0.042,-0.0199,-0.0198,-0.0198,0,0.0516,0.0548,0.059,0.0593,0.0601,0.0614,0.0614,0.0584,0.0602,0.0547,0.0553,0.0443,0.0407,0.0254,0.0087,0.0065,-0.0079,-0.0133,-0.024,-0.0242,-0.027,-0.0272,-0.0448,-0.0245,-0.0245,-0.0245,-0.0245,0,0.0573,0.0607,0.0621,0.0642,0.0703,0.068,0.0729,0.0709,0.0704,0.075,0.0623,0.0636,0.0418,0.0313,0.0132,-0.0052,-0.0047,-0.0224,-0.0261,-0.0238,-0.0237,-0.0437,-0.0555,-0.0248,-0.0247,-0.0246,-0.0246,0,0.0625,0.063,0.0685,0.0713,0.0729,0.0769,0.0817,0.0855,0.083,0.0886,0.0881,0.0787,0.0653,0.0434,0.0203,0.0029,-0.0277,-0.0236,-0.0184,-0.0214,-0.0491,-0.0604,-0.084,-0.0924,-0.0368,-0.0369,-0.0369,0,0.0652,0.0685,0.0744,0.0789,0.0803,0.0859,0.0906,0.0912,0.097,0.0994,0.104,0.0936,0.0893,0.0548,0.0224,-0.0084,-0.0288,-0.0279,-0.0327,-0.0496,-0.0651,-0.0745,-0.0805,-0.0333,-0.0333,-0.0333,-0.0333,0,0.0715,0.0731,0.078,0.0875,0.0935,0.1012,0.1086,0.116,0.1194,0.1245,0.131,0.1281,0.0965,0.0681,0.0254,0.0015,-0.0416,-0.0291,-0.049,-0.0654,-0.0745,-0.0844,-0.0288,-0.0334,-0.0334,-0.0334,-0.0334,-0.0334,0.0766,0.0819,0.0889,0.0983,0.1054,0.1167,0.1256,0.1352,0.1472,0.159,0.1543,0.1543,0.1111,0.0534,0.0186,-0.0417,-0.0443,-0.0596,-0.0722,-0.0803,-0.0882,-0.0313,-0.0386,-0.0386,-0.0386,-0.0386,-0.0387,0,0.0853,0.0916,0.0999,0.1114,0.1206,0.1229,0.1385,0.1493,0.1663,0.1765,0.1825,0.1634,0.108,0.0503,-0.03,-0.0742,-0.093,-0.0999,-0.1142,-0.1185,-0.0696,-0.069,-0.0801,-0.0801,-0.0801,-0.0801,-0.0801,-0.08,0.0908,0.1014,0.1059,0.1232,0.1309,0.1453,0.1555,0.1716,0.1835,0.1979,0.2003,0.1988,0.1562,0.0071,-0.0924,-0.1163,-0.1494,-0.1582,-0.1737,-0.1417,-0.1389,-0.1362,-0.1384,-0.1639,-0.1641,-0.2156,-0.2161,-0.2166]}],[{"header":{"parameterUnit":"m.s-1","parameterCategory":2,"la1":30.2991,"la2":30.254,"lo1":-89.0895,"lo2":-89.0444,"dy":0.0017,"dx":0.0017,"nx":28,"ny":28,"refTime":"2025-04-29T21:00:00:Z","depth":"2","parameterNumber":2,"parameterNumberName":"U-component_of_CURRENTS"},"data":[0,0,0,0,0,0,0,0,0,0,0,0,0,0,0,0,0,0,0,0,0,0,0,0,0,0,0,0,0,0,0,0,0,0,0,0,0,0,0,0,0,0,0,0,0,0,0,0,0,0,0,0,0,0,0,0,0,0,0.2662,0.2663,0,0.2714,0.2714,0.2714,0.272,0.2719,0.2719,0.2719,0.2734,0.2735,0.2735,0,0,0,0,0,0,0,0,0,0,0,0,0,0.2568,0.257,0.2662,0.2663,0.2664,0.2714,0.2714,0.2714,0.272,0.2719,0.2719,0.2719,0.2734,0.2735,0.2735,0,0,0,0,0,0,0,0,0,0,0,0,0,0.261,0.257,0.2662,0.2675,0.2677,0.2714,0.2714,0.2715,0.272,0.2719,0.2719,0.2719,0.2734,0.2735,0.2736,0.2749,0,0,0.2738,0.2739,0,0,0,0,0,0,0,0,0.2608,0.2614,0.2672,0.2674,0.2676,0.2712,0.2687,0.2725,0.272,0.27,0.2719,0.2718,0.2726,0.2727,0.2734,0.275,0.2751,0.2739,0.2739,0.274,0.274,0,0,0,0,0,0,0,0.2605,0.2611,0.268,0.2673,0.2676,0.2678,0.2683,0.2694,0.2711,0.2702,0.2703,0.2714,0.2726,0.2733,0.2734,0.2751,0.2739,0.2739,0.274,0.274,0.282,0.2821,0,0,0,0,0,0,0.2606,0.2609,0.2678,0.2681,0.2644,0.268,0.2686,0.2699,0.2712,0.2715,0.2714,0.2714,0.2732,0.2733,0.2735,0.2791,0.274,0.274,0.2741,0.2818,0.282,0.2822,0,0,0,0,0,0,0.2603,0.2611,0.2676,0.2648,0.2657,0.2683,0.2697,0.27,0.2717,0.2722,0.2724,0.2729,0.2731,0.2734,0.2761,0.279,0.2741,0.2742,0.2817,0.2819,0.2821,0.2878,0,0,0,0,0,0,0.26,0.261,0.2622,0.2649,0.2659,0.271,0.2698,0.2701,0.2725,0.2726,0.2736,0.2736,0.2731,0.276,0.2762,0.2791,0.2743,0.2815,0.2818,0.282,0.2874,0.2882,0.2889,0,0,0,0,0,0.2597,0.2616,0.2623,0.2631,0.2674,0.2711,0.2717,0.2731,0.2726,0.2743,0.2751,0.2736,0.2779,0.2762,0.2764,0.2794,0.2813,0.2817,0.282,0.2871,0.2881,0.2889,0,0,0,0,0,0,0.2579,0.2619,0.2627,0.2657,0.2688,0.2714,0.2733,0.274,0.2759,0.276,0.2755,0.2757,0.2793,0.2787,0.2768,0.2826,0.2795,0.2799,0.2833,0.2841,0.2848,0.2844,0.2743,0,0,0,0,0,0.2583,0.2609,0.2644,0.267,0.2688,0.2712,0.2729,0.2742,0.2762,0.277,0.2777,0.2789,0.2809,0.2819,0.2833,0.2864,0.2871,0.2885,0.2892,0.2898,0.2897,0.2941,0.2952,0.2833,0.2833,0.2833,0,0,0.2582,0.261,0.2623,0.2669,0.2693,0.2724,0.2721,0.2757,0.2782,0.2769,0.2803,0.2815,0.2823,0.286,0.2876,0.2859,0.294,0.2902,0.2908,0.2903,0.2946,0.2957,0.2968,0.2836,0.2835,0.2835,0,0,0.2595,0.2622,0.2648,0.2678,0.2724,0.2743,0.2756,0.2792,0.2808,0.2844,0.2844,0.2873,0.2898,0.2914,0.2924,0.2979,0.2977,0.2987,0.302,0.3063,0.3073,0.3082,0.3121,0.3133,0.299,0.299,0.299,0,0.2592,0.2628,0.2661,0.2695,0.272,0.2752,0.2781,0.2809,0.2848,0.2868,0.2862,0.2919,0.2924,0.2973,0.2993,0.2995,0.3019,0.2985,0.3073,0.3081,0.3089,0.3127,0.314,0.2993,0.2993,0.2992,0.2992,0,0.2624,0.2654,0.2675,0.2726,0.2759,0.2793,0.2836,0.2871,0.2892,0.2916,0.2971,0.2988,0.3019,0.3033,0.3028,0.3093,0.3092,0.3078,0.3049,0.3105,0.3141,0.3153,0.2998,0.2997,0.2996,0.2995,0,0,0.2604,0.268,0.2684,0.2707,0.2776,0.2801,0.2859,0.2913,0.2949,0.2991,0.3039,0.3079,0.3092,0.3103,0.3111,0.3147,0.3228,0.314,0.3141,0.3176,0.3332,0.3325,0.3337,0.3234,0.3236,0.3238,0.334,0,0.2613,0.2664,0.2707,0.2754,0.2781,0.2836,0.2884,0.294,0.2988,0.3046,0.3085,0.3132,0.3119,0.3144,0.3181,0.322,0.3259,0.3201,0.3275,0.3277,0.3261,0.335,0.3101,0.3171,0.3351,0.3353,0.3355,0,0.2621,0.2654,0.2695,0.276,0.2778,0.2814,0.2892,0.2943,0.3039,0.3081,0.3145,0.3179,0.3252,0.3225,0.3323,0.3291,0.3315,0.3337,0.3341,0.3319,0.3291,0.3142,0.3185,0.3374,0.3372,0.3371,0.337,0,0.2568,0.264,0.2666,0.269,0.2773,0.2804,0.2855,0.2948,0.3,0.311,0.3166,0.3246,0.3303,0.335,0.3408,0.3375,0.3514,0.3469,0.3484,0.3483,0.3275,0.3253,0.3532,0.3531,0.3531,0.3531,0.3531,0,0.2548,0.2566,0.2642,0.2653,0.2693,0.2769,0.2825,0.2898,0.3007,0.308,0.3176,0.3257,0.3339,0.3429,0.3451,0.3526,0.3554,0.3511,0.3519,0.3291,0.327,0.3438,0.3426,0.3535,0.3534,0.3533,0.3532,0,0.2477,0.2528,0.2559,0.2639,0.2665,0.2692,0.2799,0.2845,0.2967,0.3073,0.3117,0.3287,0.3419,0.3497,0.3598,0.359,0.3648,0.3658,0.3392,0.3367,0.3572,0.3561,0.3683,0.3683,0.3684,0.3685,0.3685,0,0.2442,0.2452,0.2526,0.2544,0.2577,0.2634,0.2675,0.2803,0.2871,0.309,0.3143,0.3324,0.3433,0.3602,0.3636,0.3697,0.3709,0.348,0.3365,0.3598,0.3593,0.3581,0.357,0.3111,0.3107,0.3103,0.3101,0,0.2375,0.2404,0.243,0.2473,0.251,0.2548,0.2632,0.2676,0.2846,0.2953,0.3118,0.3228,0.3433,0.3416,0.3529,0.3517,0.3452,0.3415,0.3733,0.3125,0.3071,0.3062,0.3067,0.307,0.3073,0.3075,0.3077,0.3078,0.2323,0.2328,0.2374,0.2406,0.2437,0.2463,0.247,0.2575,0.2669,0.2813,0.2991,0.3081,0.3189,0.3251,0.3197,0.3161,0.3382,0.3215,0.322,0.323,0.3159,0.3111,0.3104,0.3107,0.3109,0.3112,0.3114,0,0.2276,0.2296,0.231,0.2339,0.2326,0.2385,0.2439,0.243,0.2496,0.2654,0.2771,0.2659,0.2713,0.2798,0.2724,0.2769,0.2674,0.2639,0.2477,0.2515,0.2546,0.2432,0.2188,0.2184,0.218,0.2177,0,0,0.2257,0.2257,0.2265,0.2228,0.224,0.2205,0.2211,0.2213,0.2286,0.2307,0.2348,0.2594,0.2744,0.2418,0.2418,0.2279,0.2353,0.2195,0.2956,0.2804,0.283,0.2924,0.2799,0,0,0,0,0]},{"header":{"parameterUnit":"m.s-1","parameterCategory":2,"la1":30.2991,"la2":30.254,"lo1":-89.0895,"lo2":-89.0444,"dy":0.0017,"dx":0.0017,"nx":28,"ny":28,"refTime":"2025-04-29T21:00:00:Z","depth":"2","parameterNumber":3,"parameterNumberName":"V-component_of_CURRENTS"},"data":[0,0,0,0,0,0,0,0,0,0,0,0,0,0,0,0,0,0,0,0,0,0,0,0,0,0,0,0,0,0,0,0,0,0,0,0,0,0,0,0,0,0,0,0,0,0,0,0,0,0,0,0,0,0,0,0,0,0,0.0004,0.0003,0,-0.0076,-0.0077,-0.0078,-0.0135,-0.0136,-0.0136,-0.0136,-0.0255,-0.0257,-0.026,0,0,0,0,0,0,0,0,0,0,0,0,0,0.0051,0.005,0.0004,0.0003,0.0002,-0.0076,-0.0077,-0.0079,-0.0135,-0.0136,-0.0136,-0.0136,-0.0254,-0.0257,-0.026,0,0,0,0,0,0,0,0,0,0,0,0,0,0.0005,0.005,0.0004,-0.0034,-0.0038,-0.0076,-0.0077,-0.0079,-0.0135,-0.0136,-0.0136,-0.0137,-0.0253,-0.0257,-0.0261,-0.0278,0,0,-0.0274,-0.0276,0,0,0,0,0,0,0,0,0.0008,0.0003,-0.0028,-0.0032,-0.0036,-0.0095,-0.0104,-0.0147,-0.0135,-0.01,-0.0136,-0.0137,-0.0203,-0.0212,-0.0227,-0.0283,-0.0288,-0.0274,-0.0277,-0.0279,-0.028,0,0,0,0,0,0,0,0.0011,0.0006,-0.0029,-0.0029,-0.0034,-0.0067,-0.0074,-0.0113,-0.015,-0.0103,-0.0107,-0.0113,-0.0206,-0.0223,-0.0231,-0.029,-0.0274,-0.0278,-0.0281,-0.0282,-0.037,-0.037,0,0,0,0,0,0,0.0028,0.001,-0.0027,-0.0031,-0.0013,-0.0067,-0.0075,-0.0077,-0.0149,-0.0159,-0.0113,-0.0116,-0.0216,-0.0226,-0.0235,-0.025,-0.0279,-0.0283,-0.0285,-0.037,-0.037,-0.037,0,0,0,0,0,0,0.0029,0.0025,-0.0023,-0.0012,-0.002,-0.0067,-0.0069,-0.0078,-0.0094,-0.0156,-0.0167,-0.0119,-0.0216,-0.0229,-0.0264,-0.0256,-0.0285,-0.0289,-0.037,-0.037,-0.037,-0.0287,0,0,0,0,0,0,0.0031,0.0027,0.0031,-0.0011,-0.002,-0.0036,-0.0069,-0.0079,-0.0096,-0.0101,-0.0164,-0.0176,-0.0218,-0.0257,-0.0268,-0.0262,-0.0292,-0.0371,-0.037,-0.037,-0.029,-0.0284,-0.0279,0,0,0,0,0,0.0033,0.0047,0.0032,0.0028,-0.0012,-0.0035,-0.0043,-0.008,-0.0096,-0.0097,-0.014,-0.0174,-0.0262,-0.026,-0.0273,-0.0268,-0.0371,-0.037,-0.037,-0.0293,-0.0285,-0.0279,0,0,0,0,0,0,0.0069,0.0041,0.0024,0.0028,0.0002,-0.0044,-0.0046,-0.0073,-0.0108,-0.0111,-0.0172,-0.0186,-0.0215,-0.0252,-0.0249,-0.0293,-0.0322,-0.0324,-0.0259,-0.0252,-0.0247,-0.0225,-0.0296,0,0,0,0,0,0.0081,0.0083,0.0047,0.005,0.0042,-0.0001,-0.0015,-0.0038,-0.0075,-0.0091,-0.0136,-0.0183,-0.0223,-0.0245,-0.0286,-0.0309,-0.0344,-0.0315,-0.0309,-0.0304,-0.0296,-0.0343,-0.034,-0.0368,-0.0368,-0.0368,0,0,0.0096,0.0081,0.0082,0.0058,0.0036,0.0033,-0.001,-0.0022,-0.0028,-0.0098,-0.0117,-0.0164,-0.0225,-0.0251,-0.0267,-0.0281,-0.0314,-0.0303,-0.0298,-0.0293,-0.0342,-0.0339,-0.0337,-0.0367,-0.0367,-0.0368,0,0,0.0132,0.0116,0.0131,0.0115,0.009,0.0063,0.0064,0.0023,0.0003,-0.0022,-0.0074,-0.0112,-0.0172,-0.0213,-0.0242,-0.0229,-0.0282,-0.0244,-0.0198,-0.0244,-0.0241,-0.024,-0.0273,-0.0276,-0.0241,-0.0241,-0.0241,0,0.0152,0.0164,0.0131,0.0141,0.0136,0.0083,0.0098,0.0069,0.0021,0.001,-0.0015,-0.0101,-0.0153,-0.0188,-0.0186,-0.0215,-0.0247,-0.0217,-0.0235,-0.0234,-0.0234,-0.0269,-0.0273,-0.0237,-0.0237,-0.0237,-0.0238,0,0.0196,0.0205,0.0214,0.0209,0.0199,0.0204,0.0165,0.015,0.0119,0.0086,0.0047,-0.0026,-0.0075,-0.0101,-0.0141,-0.0166,-0.019,-0.0221,-0.0247,-0.0226,-0.0265,-0.027,-0.0231,-0.0232,-0.0233,-0.0234,0,0,0.0244,0.0247,0.025,0.0264,0.0238,0.0239,0.0232,0.0212,0.0216,0.0155,0.0151,0.007,0.0029,-0.0007,-0.0067,-0.0111,-0.0141,-0.0159,-0.0163,-0.0182,-0.0232,-0.0241,-0.0248,-0.0176,-0.0176,-0.0177,-0.0255,0,0.029,0.033,0.0314,0.035,0.0369,0.0327,0.0329,0.0303,0.0268,0.0248,0.0167,0.0137,0.0064,0.0046,-0.0011,-0.0106,-0.0152,-0.0116,-0.0258,-0.0262,-0.0265,-0.0254,-0.0227,-0.0294,-0.0261,-0.0262,-0.0262,0,0.0339,0.0361,0.0407,0.0429,0.0435,0.0442,0.0442,0.0437,0.039,0.0363,0.031,0.0249,0.0178,0.0113,-0.0035,-0.0008,-0.011,-0.0189,-0.0195,-0.0235,-0.0281,-0.0314,-0.0306,-0.0272,-0.0271,-0.027,-0.027,0,0.0392,0.0427,0.0469,0.0474,0.0486,0.0498,0.05,0.0472,0.0487,0.0435,0.044,0.0336,0.0299,0.0156,-0.0003,-0.002,-0.0165,-0.0212,-0.0318,-0.032,-0.034,-0.0343,-0.0318,-0.0318,-0.0318,-0.0318,-0.0318,0,0.0445,0.048,0.0498,0.052,0.0579,0.056,0.0606,0.0588,0.0582,0.062,0.0506,0.0511,0.0309,0.0204,0.0035,-0.0144,-0.0138,-0.0304,-0.034,-0.031,-0.0309,-0.0328,-0.0328,-0.0321,-0.032,-0.032,-0.0319,0,0.0492,0.0502,0.0557,0.0588,0.0604,0.0642,0.0688,0.0722,0.07,0.0746,0.0742,0.0647,0.0514,0.0308,0.0087,-0.0074,-0.0258,-0.0328,-0.027,-0.0299,-0.0395,-0.039,-0.0457,-0.0458,-0.0458,-0.0459,-0.046,0,0.0518,0.0551,0.0612,0.0655,0.0671,0.0726,0.077,0.0776,0.0827,0.0841,0.0878,0.0773,0.0717,0.0384,0.0087,-0.0202,-0.0248,-0.0373,-0.041,-0.038,-0.041,-0.0403,-0.0397,-0.0407,-0.0407,-0.0407,-0.0407,0,0.057,0.0589,0.0636,0.0728,0.0786,0.0861,0.093,0.0993,0.1022,0.1063,0.1106,0.1065,0.0762,0.0482,0.0085,-0.0121,-0.0327,-0.0384,-0.0372,-0.0369,-0.0338,-0.0365,-0.036,-0.0408,-0.0407,-0.0407,-0.0407,-0.0407,0.0607,0.0653,0.0718,0.0805,0.0884,0.0988,0.1061,0.115,0.125,0.1336,0.1289,0.1236,0.0907,0.0408,0.0053,-0.0326,-0.0319,-0.0457,-0.0455,-0.0453,-0.0426,-0.0398,-0.0473,-0.0474,-0.0474,-0.0474,-0.0474,0,0.0649,0.0706,0.0792,0.0896,0.0988,0.1028,0.1165,0.1239,0.1373,0.1463,0.1496,0.1188,0.0866,0.0482,-0.007,-0.0403,-0.0441,-0.0514,-0.0482,-0.0478,-0.0476,-0.045,-0.0504,-0.0505,-0.0506,-0.0507,0,0,0.0672,0.0755,0.08,0.0957,0.1043,0.1176,0.1262,0.1378,0.1466,0.1546,0.1539,0.148,0.1003,0.0608,0.0146,-0.0172,-0.0251,-0.0245,-0.0187,-0.0091,-0.0084,-0.0411,-0.0362,0,0,0,0,0]}],[{"header":{"parameterUnit":"m.s-1","parameterCategory":2,"la1":30.2991,"la2":30.254,"lo1":-89.0895,"lo2":-89.0444,"dy":0.0017,"dx":0.0017,"nx":28,"ny":28,"refTime":"2025-04-29T21:00:00:Z","depth":"4","parameterNumber":2,"parameterNumberName":"U-component_of_CURRENTS"},"data":[0,0,0,0,0,0,0,0,0,0,0,0,0,0,0,0,0,0,0,0,0,0,0,0,0,0,0,0,0,0,0,0,0,0,0,0,0,0,0,0,0,0,0,0,0,0,0,0,0,0,0,0,0,0,0,0,0,0,0.177,0.1771,0,0.1858,0.1859,0.186,0.1926,0.1927,0.1927,0.1928,0.2022,0.2023,0.2025,0,0,0,0,0,0,0,0,0,0,0,0,0,0.165,0.1652,0.177,0.1771,0.1772,0.1858,0.1859,0.186,0.1926,0.1927,0.1928,0.1929,0.2021,0.2023,0.2025,0,0,0,0,0,0,0,0,0,0,0,0,0,0.1714,0.1652,0.177,0.1817,0.1823,0.1858,0.1859,0.186,0.1925,0.1927,0.1928,0.1929,0.202,0.2023,0.2026,0.2017,0,0,0.2033,0.2035,0,0,0,0,0,0,0,0,0.1711,0.1718,0.1809,0.1814,0.182,0.1884,0.1851,0.1914,0.1925,0.1884,0.1928,0.193,0.1977,0.1983,0.1994,0.2021,0.2025,0.2034,0.2035,0.2036,0.2037,0,0,0,0,0,0,0,0.1706,0.1715,0.1802,0.181,0.1817,0.1832,0.1842,0.1863,0.1921,0.1888,0.1893,0.1906,0.198,0.1991,0.1996,0.2027,0.2034,0.2036,0.2038,0.2039,0.2174,0.2176,0,0,0,0,0,0,0.1699,0.1711,0.18,0.1805,0.177,0.1833,0.1845,0.186,0.1921,0.1932,0.1905,0.1909,0.1986,0.1993,0.2,0.2106,0.2036,0.2039,0.204,0.2172,0.2175,0.2177,0,0,0,0,0,0,0.1696,0.1706,0.1796,0.1762,0.1774,0.1834,0.1851,0.1862,0.1912,0.1934,0.1945,0.195,0.1987,0.1996,0.2059,0.2106,0.204,0.2042,0.217,0.2173,0.2176,0.2245,0,0,0,0,0,0,0.1693,0.1705,0.1731,0.1761,0.1776,0.1844,0.1851,0.1863,0.1917,0.1924,0.1976,0.1983,0.1989,0.2055,0.2062,0.2108,0.2044,0.2167,0.2171,0.2175,0.224,0.225,0.2259,0,0,0,0,0,0.1688,0.1712,0.1732,0.1743,0.1805,0.1845,0.1855,0.1898,0.1919,0.1947,0.1988,0.1984,0.2084,0.2059,0.2066,0.2114,0.2165,0.217,0.2174,0.2236,0.2248,0.2259,0,0,0,0,0,0,0.1674,0.1722,0.1744,0.1783,0.1825,0.1858,0.1894,0.1919,0.1972,0.1992,0.2008,0.2019,0.2091,0.2092,0.2064,0.2165,0.2125,0.2131,0.217,0.2181,0.219,0.2182,0.2046,0,0,0,0,0,0.1682,0.1717,0.1759,0.1796,0.1821,0.1864,0.1893,0.1924,0.1966,0.1993,0.2029,0.2069,0.2107,0.2138,0.2166,0.222,0.222,0.2257,0.2266,0.2274,0.2273,0.2315,0.2328,0.2192,0.2192,0.2192,0,0,0.1686,0.172,0.1741,0.1797,0.1835,0.1876,0.1886,0.1943,0.1986,0.1993,0.2074,0.2104,0.2128,0.2193,0.2225,0.2206,0.2316,0.228,0.2286,0.2281,0.2321,0.2335,0.2346,0.2195,0.2194,0.2194,0,0,0.1701,0.1746,0.1779,0.1819,0.1885,0.191,0.1935,0.1993,0.2035,0.2104,0.2124,0.2181,0.2242,0.227,0.2288,0.2364,0.2361,0.2385,0.243,0.2472,0.2483,0.2493,0.2519,0.2531,0.2392,0.2392,0.2392,0,0.1708,0.1755,0.1795,0.1839,0.1879,0.193,0.1973,0.2018,0.2093,0.213,0.2143,0.225,0.2274,0.2345,0.2378,0.2385,0.2405,0.2385,0.2483,0.2493,0.2502,0.2526,0.2538,0.2396,0.2396,0.2395,0.2395,0,0.1739,0.1792,0.1818,0.1889,0.1935,0.1985,0.2046,0.2107,0.2161,0.2202,0.2298,0.2337,0.2398,0.2422,0.2426,0.2509,0.2502,0.2487,0.2451,0.2519,0.2541,0.2552,0.2402,0.24,0.2399,0.2398,0,0,0.1707,0.1818,0.1831,0.1875,0.1969,0.2004,0.2088,0.2166,0.2225,0.2305,0.238,0.2455,0.2485,0.2508,0.253,0.257,0.2655,0.2566,0.2566,0.2585,0.2751,0.2601,0.2598,0.2666,0.2668,0.267,0.2744,0,0.1723,0.1804,0.1859,0.1942,0.1987,0.2066,0.2133,0.2215,0.2289,0.2374,0.2437,0.2516,0.2516,0.2562,0.2606,0.2646,0.2687,0.2636,0.2687,0.2688,0.2541,0.2607,0.2677,0.2752,0.2754,0.2756,0.2757,0,0.1728,0.1785,0.1866,0.1974,0.2002,0.2063,0.218,0.225,0.2372,0.2434,0.2523,0.2573,0.2666,0.2648,0.2749,0.2723,0.2745,0.2763,0.2766,0.2604,0.2558,0.2668,0.2777,0.2775,0.2774,0.2772,0.2771,0,0.1671,0.1786,0.1852,0.1892,0.2018,0.2079,0.2154,0.2274,0.2342,0.2483,0.2548,0.265,0.2723,0.2771,0.2824,0.2802,0.2917,0.2883,0.2764,0.2754,0.2835,0.2823,0.2942,0.2942,0.2942,0.2942,0.2942,0,0.1647,0.1704,0.1839,0.1875,0.1959,0.2061,0.2159,0.2251,0.2382,0.2461,0.258,0.265,0.2762,0.2838,0.2859,0.2849,0.2949,0.2777,0.2765,0.2864,0.2855,0.2843,0.283,0.2944,0.2944,0.2943,0.2943,0,0.1572,0.1663,0.1745,0.1887,0.1937,0.2,0.2156,0.2217,0.2362,0.2472,0.2525,0.2683,0.2779,0.2863,0.2951,0.288,0.2891,0.2861,0.2976,0.2968,0.2689,0.268,0.2719,0.2714,0.271,0.2707,0.2704,0,0.1538,0.1576,0.1733,0.1783,0.1855,0.1965,0.2034,0.2191,0.2259,0.2468,0.2508,0.2663,0.2749,0.2747,0.2849,0.2874,0.2844,0.2823,0.2732,0.2683,0.2668,0.2665,0.2661,0.2698,0.2697,0.2696,0.2695,0,0.1468,0.154,0.1607,0.171,0.1795,0.1873,0.1992,0.2024,0.2203,0.2351,0.2426,0.2481,0.2587,0.2648,0.2695,0.2707,0.2818,0.2781,0.2787,0.2702,0.2658,0.2647,0.2647,0.2681,0.2683,0.2685,0.2685,0,0.1416,0.1442,0.154,0.1615,0.1716,0.176,0.1832,0.1914,0.1997,0.222,0.2243,0.241,0.2558,0.2564,0.2612,0.2612,0.2564,0.2465,0.2487,0.2503,0.24,0.2311,0.2221,0,0,0,0,0,0.1349,0.1368,0.1436,0.151,0.1604,0.1663,0.1795,0.187,0.2038,0.2031,0.2128,0.2214,0.2283,0.2377,0.2334,0.253,0.2581,0.247,0.2479,0.2606,0.2622,0.2521,0,0,0,0,0,0,0.1304,0.1363,0.1394,0.1408,0.1437,0.1522,0.1598,0.1711,0.1719,0.1896,0.1945,0.2081,0.2184,0.228,0.229,0.2319,0.228,0.2579,0.2573,0.2597,0.2611,0.2624,0.2526,0,0,0,0,0]},{"header":{"parameterUnit":"m.s-1","parameterCategory":2,"la1":30.2991,"la2":30.254,"lo1":-89.0895,"lo2":-89.0444,"dy":0.0017,"dx":0.0017,"nx":28,"ny":28,"refTime":"2025-04-29T21:00:00:Z","depth":"4","parameterNumber":3,"parameterNumberName":"V-component_of_CURRENTS"},"data":[0,0,0,0,0,0,0,0,0,0,0,0,0,0,0,0,0,0,0,0,0,0,0,0,0,0,0,0,0,0,0,0,0,0,0,0,0,0,0,0,0,0,0,0,0,0,0,0,0,0,0,0,0,0,0,0,0,0,0.0004,0.0003,0,-0.0051,-0.0052,-0.0053,-0.0097,-0.0097,-0.0098,-0.0098,-0.0194,-0.0196,-0.0198,0,0,0,0,0,0,0,0,0,0,0,0,0,0.0028,0.0028,0.0004,0.0003,0.0002,-0.0051,-0.0052,-0.0053,-0.0097,-0.0097,-0.0098,-0.0098,-0.0193,-0.0195,-0.0198,0,0,0,0,0,0,0,0,0,0,0,0,0,-0.0001,0.0028,0.0004,-0.0025,-0.0028,-0.0051,-0.0052,-0.0053,-0.0097,-0.0097,-0.0098,-0.0098,-0.0192,-0.0195,-0.0198,-0.0208,0,0,-0.0209,-0.021,0,0,0,0,0,0,0,0,0.0001,-0.0002,-0.002,-0.0023,-0.0027,-0.0067,-0.0079,-0.0107,-0.0097,-0.0072,-0.0098,-0.0099,-0.0154,-0.016,-0.017,-0.0213,-0.0217,-0.0209,-0.0211,-0.0212,-0.0213,0,0,0,0,0,0,0,0.0003,-0.0,-0.0019,-0.0021,-0.0025,-0.005,-0.0054,-0.0084,-0.0111,-0.0074,-0.0077,-0.0082,-0.0156,-0.0167,-0.0173,-0.0218,-0.0209,-0.0212,-0.0214,-0.0215,-0.0287,-0.0287,0,0,0,0,0,0,0.0015,0.0002,-0.0017,-0.0021,-0.0013,-0.005,-0.0055,-0.0054,-0.011,-0.0118,-0.0081,-0.0083,-0.0161,-0.0169,-0.0177,-0.0191,-0.0212,-0.0215,-0.0217,-0.0287,-0.0287,-0.0287,0,0,0,0,0,0,0.0015,0.0014,-0.0015,-0.001,-0.0016,-0.0049,-0.0049,-0.0055,-0.0067,-0.0114,-0.0124,-0.0087,-0.0162,-0.0172,-0.02,-0.0195,-0.0217,-0.022,-0.0287,-0.0287,-0.0287,-0.0221,0,0,0,0,0,0,0.0016,0.0014,0.0018,-0.0009,-0.0015,-0.0023,-0.0048,-0.0056,-0.0069,-0.0072,-0.0122,-0.0132,-0.0163,-0.0195,-0.0204,-0.02,-0.0223,-0.0287,-0.0287,-0.0287,-0.0223,-0.0219,-0.0215,0,0,0,0,0,0.0018,0.003,0.0019,0.0016,-0.0008,-0.0023,-0.0028,-0.0055,-0.0068,-0.0069,-0.0103,-0.013,-0.02,-0.0198,-0.0208,-0.0205,-0.0287,-0.0287,-0.0287,-0.0225,-0.0219,-0.0215,0,0,0,0,0,0,0.0042,0.0026,0.0013,0.0019,0.0001,-0.003,-0.0031,-0.005,-0.0078,-0.0081,-0.0128,-0.0139,-0.0164,-0.0193,-0.0189,-0.0226,-0.0249,-0.025,-0.0199,-0.0194,-0.0189,-0.0173,-0.0225,0,0,0,0,0,0.0051,0.0055,0.0032,0.0036,0.0031,0.0,-0.0009,-0.0026,-0.0053,-0.0066,-0.01,-0.0138,-0.017,-0.0188,-0.022,-0.0239,-0.0269,-0.0245,-0.024,-0.0237,-0.023,-0.0272,-0.0271,-0.0286,-0.0286,-0.0286,0,0,0.0062,0.0053,0.0055,0.0041,0.0026,0.0026,-0.0007,-0.0014,-0.0017,-0.0072,-0.0086,-0.0124,-0.0172,-0.0193,-0.0206,-0.0217,-0.0248,-0.0236,-0.0232,-0.0228,-0.0272,-0.027,-0.0269,-0.0286,-0.0286,-0.0286,0,0,0.009,0.0079,0.0093,0.0082,0.0066,0.0048,0.0049,0.0021,0.0005,-0.0013,-0.0054,-0.0086,-0.0133,-0.0165,-0.0188,-0.018,-0.0224,-0.0193,-0.0157,-0.0197,-0.0196,-0.0196,-0.0226,-0.0229,-0.019,-0.019,-0.019,0,0.0103,0.0116,0.0094,0.0102,0.0101,0.0062,0.0075,0.0055,0.002,0.0011,-0.0008,-0.0077,-0.0118,-0.0147,-0.0146,-0.0169,-0.0197,-0.0171,-0.0191,-0.0191,-0.0191,-0.0223,-0.0227,-0.0187,-0.0187,-0.0188,-0.0188,0,0.0137,0.0147,0.0155,0.0154,0.0149,0.0154,0.0128,0.0117,0.0094,0.007,0.0038,-0.0019,-0.0059,-0.008,-0.0112,-0.0135,-0.0155,-0.0179,-0.02,-0.0186,-0.022,-0.0225,-0.0182,-0.0184,-0.0185,-0.0185,0,0,0.0169,0.0179,0.0181,0.0194,0.0179,0.0181,0.0178,0.0165,0.0168,0.0122,0.0117,0.0053,0.002,-0.0008,-0.0056,-0.0094,-0.0123,-0.0132,-0.0136,-0.0154,-0.0206,-0.0206,-0.0213,-0.0152,-0.0152,-0.0153,-0.0226,0,0.0202,0.0236,0.0229,0.026,0.0275,0.0248,0.0253,0.0234,0.0208,0.0192,0.0128,0.0104,0.0048,0.0032,-0.0016,-0.0095,-0.0135,-0.0101,-0.0224,-0.0227,-0.0223,-0.0218,-0.0155,-0.023,-0.0231,-0.0232,-0.0233,0,0.0235,0.0256,0.0295,0.0319,0.0324,0.0335,0.0338,0.0336,0.03,0.028,0.0238,0.0189,0.0129,0.008,-0.0046,-0.0022,-0.0105,-0.0171,-0.0176,-0.0202,-0.0237,-0.0251,-0.0242,-0.0242,-0.0241,-0.024,-0.024,0,0.0267,0.0301,0.0337,0.0343,0.0361,0.0375,0.0381,0.0363,0.0375,0.0336,0.0339,0.0252,0.0219,0.0103,-0.003,-0.0039,-0.017,-0.0202,-0.0282,-0.0283,-0.0289,-0.029,-0.0291,-0.0291,-0.0291,-0.0291,-0.0291,0,0.0299,0.0329,0.0357,0.0376,0.0426,0.0419,0.0459,0.0449,0.0447,0.0472,0.039,0.0383,0.0224,0.0132,-0.0004,-0.0151,-0.0152,-0.0272,-0.0302,-0.026,-0.0256,-0.0293,-0.0292,-0.0294,-0.0293,-0.0292,-0.0292,0,0.0321,0.0339,0.0386,0.0423,0.0442,0.0474,0.0522,0.0548,0.0538,0.0567,0.0564,0.0482,0.0362,0.02,0.0013,-0.0103,-0.0253,-0.0308,-0.0236,-0.0261,-0.0347,-0.0342,-0.0403,-0.0403,-0.0404,-0.0404,-0.0405,0,0.0333,0.036,0.0424,0.0462,0.0482,0.0533,0.0572,0.0588,0.0623,0.0629,0.0648,0.0555,0.0478,0.0227,0.0036,-0.0215,-0.026,-0.0338,-0.0359,-0.0335,-0.0359,-0.0353,-0.0347,-0.0405,-0.0406,-0.0406,-0.0406,0,0.0353,0.0377,0.0417,0.0497,0.0551,0.0619,0.0677,0.0714,0.074,0.0741,0.0727,0.0598,0.0461,0.0246,0.0054,-0.0133,-0.0288,-0.0345,-0.0346,-0.0366,-0.034,-0.0361,-0.0355,-0.0408,-0.0407,-0.0407,-0.0407,0,0.0363,0.0395,0.045,0.0519,0.06,0.0677,0.071,0.0756,0.079,0.0804,0.0797,0.0645,0.0559,0.0288,0.0109,-0.0071,-0.0131,-0.0201,-0.0211,-0.0211,-0.0144,-0.0081,-0.009,0,0,0,0,0,0.0361,0.0393,0.0466,0.0543,0.0632,0.0678,0.0769,0.0796,0.0833,0.0839,0.0824,0.0699,0.0441,0.0325,0.0147,0.0068,-0.0181,-0.0151,-0.0272,-0.0418,-0.0416,-0.037,0,0,0,0,0,0,0.0352,0.0412,0.0454,0.0552,0.0611,0.0707,0.0768,0.08,0.0805,0.082,0.0691,0.0637,0.0386,0.0543,0.0137,0.0081,-0.0024,-0.0268,-0.0273,-0.0419,-0.0417,-0.0415,-0.0368,0,0,0,0,0]}]]